Theta_e
311 305 302 303 290 288 284 288 289 293 295 294 297 298 300 297 297 291 299 300 303 307 314 319 330 333 340 342 346 347 347 347 348 348 347 347 348 347 349 349 350 351 349 348 346 345 343 344 344
305 309 306 294 286 281 282 287 289 291 293 294 296 297 297 292 296 296 295 300 300 307 313 319 326 326 327 332 337 341 345 347 348 349 348 348 348 347 347 347 348 349 347 346 346 344 343 342 341
301 308 299 289 281 280 282 286 287 292 291 292 292 298 295 292 294 294 295 299 300 303 310 317 323 323 323 323 327 331 337 343 346 348 348 348 348 348 348 348 347 348 347 346 345 344 342 342 341
301 298 292 287 283 284 285 285 287 288 291 291 289 289 289 293 293 294 298 300 301 301 305 311 318 320 321 321 322 322 329 335 339 344 346 347 350 350 348 348 348 348 347 346 345 344 344 343 343
296 291 284 281 283 283 284 286 287 286 286 288 289 287 288 293 296 296 298 300 299 299 302 304 314 316 317 319 321 321 321 324 330 334 342 345 346 347 348 348 348 347 346 346 346 345 344 343 343
290 288 282 280 281 284 284 284 285 285 285 287 287 286 289 293 296 295 298 297 299 299 301 302 306 310 312 314 316 318 319 320 323 326 331 338 343 344 346 346 346 346 345 346 345 344 344 342 342
287 284 280 279 281 283 283 284 281 282 283 284 284 284 289 292 295 296 297 297 297 298 299 298 299 302 305 308 311 312 314 317 320 322 324 327 333 340 342 342 343 345 345 345 344 342 342 342 342
289 286 280 277 280 282 282 283 283 282 282 287 286 282 282 289 296 297 297 296 296 297 297 296 296 298 298 299 306 308 309 312 315 319 324 325 328 332 336 336 339 342 343 343 342 341 342 341 341
287 281 278 278 280 280 283 282 284 285 282 285 286 286 291 294 296 294 293 293 294 295 295 295 295 295 296 297 299 303 305 308 309 312 318 322 324 330 334 333 335 339 340 340 340 340 340 337 336
283 277 279 280 279 279 282 282 283 283 283 284 285 289 292 294 292 290 290 290 290 291 293 294 294 294 295 297 296 298 300 302 304 306 310 316 321 323 326 329 328 333 334 337 339 339 336 331 334
283 280 282 283 284 284 284 283 285 282 281 284 284 288 290 291 291 290 289 289 289 291 292 294 293 294 293 294 296 296 297 299 301 303 305 309 316 323 324 333 332 331 325 334 336 335 335 334 332
281 286 286 286 288 286 284 286 284 285 285 288 288 289 290 290 290 290 289 289 290 290 291 292 293 293 293 294 294 294 295 296 297 299 303 305 308 315 317 319 332 332 333 331 333 333 333 332 330
283 285 287 288 288 287 287 285 284 285 288 288 289 290 289 290 289 289 290 291 290 289 290 290 291 291 293 293 293 293 293 294 295 298 301 304 305 308 314 316 317 330 333 332 332 332 332 331 327
285 285 286 287 287 287 285 283 283 285 286 287 289 289 289 290 289 288 289 289 289 290 289 291 291 291 292 292 292 292 293 294 296 297 299 302 303 306 310 315 317 317 329 333 333 332 332 330 328
286 282 283 285 286 285 285 281 282 285 286 287 288 288 289 288 289 288 288 288 288 289 290 290 290 292 291 291 292 293 293 295 294 296 298 300 302 302 305 309 314 315 316 317 333 332 332 329 327
280 280 276 283 285 286 284 278 284 285 284 285 286 286 287 288 288 287 288 288 288 288 288 289 291 290 291 291 291 291 292 294 295 296 298 299 301 302 303 305 308 315 319 317 317 330 329 328 325
276 270 275 279 285 284 282 279 284 285 286 284 284 284 285 286 286 286 287 287 287 287 287 288 289 289 289 290 290 291 292 292 293 294 294 297 300 302 303 304 307 314 319 320 320 324 328 326 325
271 272 276 276 280 282 280 280 284 284 283 282 283 283 284 285 285 287 287 287 287 286 286 286 287 288 288 289 289 290 292 292 293 293 294 297 299 302 302 304 307 312 313 316 322 324 326 327 326
277 276 275 278 282 279 278 278 281 284 282 281 281 281 282 282 285 286 286 285 285 286 286 286 286 286 287 286 286 287 287 291 291 293 295 296 297 299 302 303 305 308 308 309 319 323 324 324 324
278 271 271 278 280 279 277 277 281 282 281 281 280 280 281 282 283 284 284 284 284 284 284 285 285 285 286 286 287 288 290 290 291 293 295 296 297 298 299 301 304 306 308 312 316 320 322 322 324
277 272 272 276 279 278 275 274 276 279 281 281 281 280 280 281 281 282 284 283 283 283 283 284 284 285 285 286 288 288 290 290 290 292 294 296 298 299 299 300 303 306 309 310 314 318 320 319 320
270 279 279 278 270 265 276 266 274 277 279 280 280 280 279 280 281 282 283 282 282 283 283 283 284 284 285 286 286 287 286 286 289 291 293 295 298 298 300 302 303 306 309 310 311 316 319 321 318
277 280 278 275 264 269 267 264 272 275 277 279 280 280 279 280 280 281 281 282 283 283 282 282 283 283 284 286 287 285 286 288 290 291 292 294 297 298 299 300 303 307 310 310 311 312 317 319 318
280 275 273 271 263 260 263 265 270 272 275 277 278 279 279 280 280 281 281 281 282 282 282 282 281 282 283 284 286 285 285 287 288 289 289 293 295 298 299 301 303 308 309 310 312 313 315 318 319
276 265 260 261 259 262 259 265 271 275 277 278 279 279 279 279 279 279 279 279 281 281 281 281 281 280 281 282 285 285 286 287 287 289 289 292 297 298 299 302 304 308 309 311 312 312 314 317 316
273 267 262 257 259 261 261 263 271 276 279 279 279 278 279 279 279 278 279 279 280 281 281 280 280 279 280 281 283 284 286 287 288 289 290 291 298 298 300 302 305 307 307 308 308 309 310 315 317
270 265 272 260 256 258 261 266 274 277 273 276 277 277 277 278 278 277 278 278 278 279 280 279 279 279 279 280 282 283 285 286 287 289 289 292 299 302 302 302 301 303 302 302 306 308 307 308 315
271 275 265 263 257 255 258 256 266 267 270 272 275 275 276 276 276 276 276 277 278 279 280 279 279 278 279 279 281 283 284 286 287 288 288 293 297 299 299 300 299 298 298 298 299 303 306 307 309
273 265 267 264 266 259 256 263 267 269 269 269 272 274 274 274 273 273 273 275 277 278 278 279 278 278 278 279 280 282 284 286 287 287 289 292 294 296 297 297 296 296 297 298 298 299 301 302 305
273 268 271 265 260 262 264 266 270 268 264 261 270 272 274 271 272 270 271 274 275 275 277 277 278 277 279 279 280 282 284 286 287 288 290 291 293 294 294 294 293 294 295 295 296 296 297 299 300
Wind_Speed
7 6 1 5 6 6 2 3 2 4 3 3 4 1 8 5 4 2 4 5 7 6 7 10 18 21 22 19 20 8 8 9 9 8 7 8 9 9 10 11 10 11 13 12 11 10 10 11 9
4 1 5 3 6 3 5 3 2 3 5 6 3 3 7 4 3 4 2 8 6 6 8 10 18 21 21 21 20 22 14 10 10 10 10 9 10 11 12 11 10 11 13 13 13 12 12 12 10
1 2 5 5 4 5 4 1 3 3 4 5 3 6 4 3 3 2 4 7 8 8 8 12 21 23 23 21 19 19 19 20 12 12 12 12 12 12 13 12 11 11 13 14 14 13 14 13 12
2 5 5 5 4 3 2 2 4 7 5 8 3 6 4 3 0 4 7 7 11 8 9 14 21 23 23 23 22 19 18 20 19 15 13 14 13 12 13 13 12 12 13 14 15 14 14 14 14
4 3 4 3 3 3 1 3 3 2 3 5 6 2 4 2 4 8 7 8 8 7 7 9 21 22 23 24 23 23 22 19 19 20 18 15 15 14 14 15 14 14 14 14 14 15 15 15 15
5 3 4 3 3 2 0 4 0 3 4 5 5 3 1 2 4 5 6 7 6 6 6 8 14 20 22 22 22 24 24 22 20 19 20 20 16 16 16 16 16 16 15 14 15 15 16 16 15
6 4 4 5 5 2 1 6 2 2 4 2 1 3 3 2 4 4 6 6 7 7 7 7 8 12 17 19 20 24 24 24 22 20 19 20 19 17 17 16 17 16 16 15 15 15 16 16 17
5 5 4 1 5 5 2 5 1 3 2 8 1 2 3 2 4 2 5 6 6 6 6 7 7 8 10 8 15 21 22 23 23 19 17 16 18 14 15 13 14 18 18 17 16 15 16 18 18
2 5 2 3 5 2 4 5 2 4 3 5 3 3 2 3 3 4 4 5 4 5 5 6 7 6 7 9 11 15 18 20 20 17 15 12 8 12 9 11 12 15 18 17 17 16 17 18 15
6 4 4 1 2 2 2 0 2 3 3 4 3 1 2 3 2 3 3 5 5 6 6 6 6 6 6 8 7 7 9 8 9 10 12 9 10 8 14 10 14 15 14 15 17 17 14 12 7
1 3 3 2 3 2 2 2 1 1 3 7 6 5 4 4 3 1 1 1 2 3 5 7 6 6 6 5 6 4 5 5 6 9 9 10 9 6 6 7 5 7 9 6 9 10 8 9 7
5 2 2 3 2 0 2 1 3 6 8 3 7 6 4 6 6 3 1 2 4 6 6 7 7 6 6 4 4 5 6 5 6 8 10 8 6 8 6 5 9 7 6 8 8 6 9 10 9
3 2 3 2 5 5 1 4 4 8 11 8 8 6 6 5 5 4 3 3 4 4 5 6 7 7 7 5 4 7 7 6 7 7 8 7 7 8 8 7 6 9 7 8 8 8 9 10 11
1 2 5 3 2 2 2 3 2 7 4 5 5 7 6 7 7 3 2 2 5 6 7 6 7 7 6 7 8 8 7 7 7 7 7 9 7 7 8 8 7 6 8 9 9 10 11 11 10
1 4 4 2 2 2 1 6 8 6 1 5 9 5 5 6 6 4 1 2 4 6 7 7 7 6 7 9 8 8 8 9 8 7 9 10 9 9 9 8 8 7 5 10 11 11 10 10 10
6 5 4 2 3 3 6 10 7 6 4 9 9 7 6 6 4 1 3 4 5 6 8 8 9 11 8 7 9 9 9 8 8 8 8 10 11 10 9 8 8 7 7 6 8 10 11 11 11
8 1 1 9 2 2 2 10 13 2 6 11 9 7 6 5 3 1 3 4 5 6 7 9 10 10 11 11 10 10 11 9 8 9 9 12 12 11 10 8 8 9 6 6 7 9 10 9 12
3 3 3 6 3 4 7 19 18 8 6 10 10 7 8 6 4 5 7 7 6 6 7 8 10 11 12 10 10 7 8 8 8 8 9 11 10 11 10 9 10 8 6 7 8 10 7 10 11
4 2 4 6 5 5 7 14 23 17 6 8 9 8 7 4 4 5 4 6 6 7 10 11 13 13 10 9 9 9 8 9 9 9 13 13 11 13 11 9 10 8 8 9 11 9 12 8 6
3 2 6 6 2 4 6 22 22 11 7 5 8 8 5 5 7 7 7 6 8 10 10 10 12 13 11 9 8 9 10 11 12 12 13 14 14 13 12 12 10 11 8 9 11 10 5 7 12
3 5 3 4 6 3 9 10 6 2 2 3 3 4 2 5 7 7 9 7 8 9 11 12 12 13 12 13 10 8 10 10 11 11 11 10 12 13 14 14 12 11 10 9 9 9 13 8 9
2 3 1 3 6 2 6 9 7 4 6 5 7 6 6 7 6 5 9 9 10 11 10 11 12 12 12 13 11 13 11 12 10 11 12 13 15 14 14 13 13 13 10 10 9 8 10 11 11
4 2 1 3 4 4 5 4 11 3 7 9 10 8 7 7 7 8 9 9 11 11 11 11 11 12 12 12 11 13 12 10 9 10 16 17 15 17 16 14 14 13 10 10 9 9 10 10 9
2 4 6 4 4 4 4 5 9 5 6 5 4 7 7 8 8 8 8 7 10 10 10 10 11 12 12 12 13 15 16 13 11 13 14 13 13 12 13 13 13 13 12 10 8 9 11 9 11
6 7 5 8 6 6 3 2 15 9 6 7 9 8 8 8 9 8 8 9 11 12 12 11 12 13 12 13 12 14 14 13 14 14 13 15 14 9 11 12 12 10 10 9 7 7 8 8 8
2 6 7 6 3 6 4 9 11 6 7 8 7 7 8 10 8 8 8 8 10 13 13 13 14 14 13 13 12 12 13 8 9 12 12 12 11 10 12 10 11 9 6 5 4 3 3 5 8
3 2 3 8 1 4 4 10 14 3 7 7 10 8 11 10 9 7 8 8 9 11 14 13 14 14 13 12 12 12 11 11 11 13 13 12 10 6 3 4 5 4 2 1 1 1 3 3 5
5 3 5 4 2 7 6 8 9 8 10 7 9 13 12 8 8 7 6 8 8 11 12 12 12 13 13 13 11 11 13 12 12 9 12 13 11 7 6 1 3 4 4 4 4 3 4 5 5
2 2 5 4 4 6 5 10 11 11 8 9 10 11 10 10 9 7 7 7 9 10 11 12 12 12 13 11 13 12 11 11 12 8 9 10 11 7 6 2 2 6 5 5 2 2 5 6 7
5 6 6 6 7 4 2 15 6 8 6 4 12 11 10 7 9 6 7 7 9 9 10 11 12 12 11 11 12 12 11 10 9 8 8 8 8 5 9 6 7 6 5 4 3 3 3 5 7
Wind_Direction
334 323 115 44 66 67 260 255 287 345 25 19 305 50 107 61 56 155 221 13 342 2 355 2 16 21 17 14 5 280 230 223 214 206 197 184 182 185 183 170 170 168 171 172 169 172 171 167 159
333 341 43 79 90 92 265 274 51 1 325 307 81 47 37 68 51 94 37 348 352 9 3 6 17 21 26 20 7 5 336 251 231 224 213 208 198 198 198 192 181 183 183 184 179 180 178 172 176
292 24 85 96 113 170 191 263 304 327 15 18 73 54 50 6 21 65 333 348 22 26 11 16 19 18 20 21 21 5 357 356 274 243 228 219 217 210 205 201 200 196 197 193 191 187 183 176 181
89 17 35 91 190 209 216 330 317 336 347 43 347 67 65 350 8 14 12 31 53 28 16 16 24 21 14 12 13 12 4 357 347 301 250 239 225 222 214 210 208 208 208 202 195 191 186 183 186
39 61 70 99 222 139 13 320 353 20 353 352 345 105 88 20 13 32 38 45 49 29 20 22 22 19 16 9 6 9 5 356 350 338 333 260 244 228 222 219 212 216 214 211 201 191 187 187 186
44 91 74 195 218 134 310 357 128 15 355 334 53 79 83 325 31 22 52 47 38 41 23 24 19 16 9 5 3 2 358 356 347 338 335 330 280 248 233 227 224 219 220 216 213 201 188 189 189
110 89 197 153 185 164 287 321 62 349 329 8 267 123 174 328 50 76 53 44 31 27 32 17 12 11 10 3 0 356 350 348 347 340 330 326 316 290 247 239 228 223 223 221 217 214 198 190 188
97 89 128 166 183 207 342 345 72 44 311 316 196 169 195 211 65 90 65 43 36 24 21 15 12 9 2 355 3 355 349 343 341 334 328 321 317 295 271 239 235 229 226 221 217 217 199 191 184
82 67 191 180 147 170 350 21 354 328 313 335 333 88 189 68 58 19 10 357 1 18 17 16 8 5 0 350 352 348 345 342 337 332 326 316 313 309 278 255 232 232 230 222 218 215 206 193 186
75 106 191 107 115 146 289 10 314 15 341 288 306 148 67 74 85 66 32 360 358 357 352 10 4 358 355 345 340 333 331 328 326 323 322 320 308 306 306 260 242 228 225 223 217 210 200 191 187
108 138 169 180 149 178 213 245 212 230 276 221 210 286 287 151 177 138 38 29 326 312 345 353 352 347 347 334 331 327 323 315 316 316 316 315 308 301 307 282 247 241 229 223 219 211 201 191 182
109 64 91 166 102 215 243 279 258 198 233 192 228 241 262 179 191 176 154 341 344 348 333 334 342 336 327 322 312 312 314 308 306 303 306 309 308 302 299 291 273 230 219 212 204 200 194 189 185
69 1 339 321 291 243 256 247 253 254 259 265 267 261 242 185 179 191 208 258 317 307 316 319 325 319 313 312 308 313 305 298 290 293 292 297 299 299 299 293 294 281 219 211 207 199 191 192 186
29 327 293 294 297 292 287 270 64 259 258 267 250 261 232 193 192 197 239 315 329 324 329 319 311 301 310 317 310 303 298 293 287 285 284 284 285 288 290 287 274 275 285 211 209 203 198 198 191
50 40 357 8 338 349 344 290 222 224 28 295 287 283 194 203 196 206 196 324 343 320 306 296 295 305 311 299 301 307 296 292 287 284 283 279 275 278 279 280 276 268 273 302 208 205 203 199 193
42 49 15 317 348 31 76 277 268 263 305 285 284 282 219 214 205 208 355 334 328 318 313 309 309 307 288 288 296 296 296 286 287 291 287 281 278 273 273 271 268 269 249 255 287 210 204 196 194
17 213 329 320 15 264 173 272 268 307 292 287 278 259 224 217 235 249 300 309 317 308 300 306 313 310 305 299 293 291 287 281 279 286 281 278 274 271 267 264 265 262 253 248 234 264 204 208 201
264 2 277 251 292 358 281 270 279 280 261 256 266 246 215 214 259 312 327 331 322 316 314 311 313 310 308 306 294 285 284 284 281 280 278 280 279 272 267 266 260 250 258 264 254 248 235 222 202
136 213 248 259 284 304 252 277 283 297 267 263 246 221 214 262 266 282 301 306 325 318 320 317 316 316 308 302 299 296 286 289 290 283 277 274 271 267 265 262 260 244 240 244 252 236 225 187 168
121 129 270 283 308 338 298 291 289 280 259 220 198 205 206 305 317 316 318 333 328 315 309 307 302 301 299 296 291 288 292 290 290 287 276 268 268 263 260 259 257 249 239 233 244 246 224 208 183
219 178 239 247 330 282 320 296 325 337 269 228 205 188 230 268 300 318 325 323 302 301 305 306 304 300 299 298 293 293 287 282 288 290 284 270 259 258 252 249 249 246 239 231 232 242 233 219 188
302 174 318 302 44 291 33 284 300 301 290 228 219 230 274 313 314 296 312 301 302 298 297 300 300 298 296 296 290 286 294 290 284 283 284 282 271 266 261 258 246 239 236 229 227 234 237 229 193
210 19 358 87 92 39 338 62 272 332 281 250 233 237 270 281 277 290 286 282 292 303 304 303 296 294 293 290 295 293 285 282 286 285 284 280 275 268 257 250 254 241 229 224 220 228 247 233 224
19 55 39 54 88 28 257 116 278 234 217 287 267 230 269 290 295 274 268 283 304 302 303 300 295 296 304 296 294 290 290 289 292 291 290 279 274 263 249 242 244 235 226 215 216 225 229 238 233
61 49 335 354 9 225 310 323 248 261 250 229 249 253 271 275 272 284 301 315 305 307 306 307 313 307 306 300 296 296 290 291 289 288 286 285 273 246 247 239 238 225 211 208 206 221 237 238 232
68 142 149 236 274 272 352 240 252 235 277 252 247 259 279 282 283 284 294 291 298 309 311 312 311 307 307 303 299 291 288 296 291 281 281 287 269 253 251 250 236 214 190 185 215 211 220 249 246
257 54 168 97 87 26 243 288 288 296 288 265 259 265 267 273 282 289 295 298 303 310 308 308 306 302 302 304 301 295 296 291 289 281 286 290 296 304 259 231 141 110 106 58 304 309 279 264 278
134 156 50 8 327 291 284 276 242 293 274 282 265 251 262 273 293 296 307 299 305 302 302 304 301 302 305 303 300 297 298 287 288 282 293 295 304 303 322 360 105 104 40 11 10 342 297 286 280
115 9 53 121 155 191 293 256 214 235 236 258 274 269 257 276 283 297 303 296 295 298 301 306 312 312 312 309 308 298 291 291 291 287 293 299 299 314 287 332 84 60 45 335 332 283 283 278 274
164 184 155 135 256 232 191 268 219 229 250 206 269 270 273 260 281 286 294 310 303 299 301 313 316 313 311 310 310 301 296 290 289 294 290 285 273 326 359 341 45 37 21 354 327 287 269 273 268